Overview Statistics Trail Chart Weather Telemetry Raw packets
 

This is the latest recevied weather packets stored in our database for station/object KD7AWQ. If no packets are shown the sender has not sent any weather packets the latest 10 day(s).

<< 98 99 100 101 102 103 104 >>
Time Temp. Humidity Pressure Rain* Wind** Luminosity Snow
1787712861 33.89° C 19% 1186.6 hPa 0 mm - 0 W/m² -
1787712557 33.89° C 19% 1186.4 hPa 0 mm - 0 W/m² -
1787712257 33.89° C 19% 1186.2 hPa 0 mm - 0 W/m² -
1787711951 33.89° C 19% 1186.3 hPa 0 mm - 0 W/m² -
1787711646 34.44° C 18% 1186.2 hPa 0 mm - 0 W/m² -
1787711342 34.44° C 17% 1186.3 hPa 0 mm - 0 W/m² -
1787711037 34.44° C 15% 1186 hPa 0 mm - 0 W/m² -
1787710734 34.44° C 15% 1186.2 hPa 0 mm - 0 W/m² -
1787710428 34.44° C 15% 1186.1 hPa 0 mm - 0 W/m² -
1787710124 34.44° C 14% 1186 hPa 0 mm - 0 W/m² -
1787709819 34.44° C 14% 1186.1 hPa 0 mm - 1 W/m² -
1787709514 34.44° C 14% 1186.2 hPa 0 mm - 3 W/m² -
1787709211 35° C 13% 1186.1 hPa 0 mm - 5 W/m² -
1787708907 36.11° C 13% 1186 hPa 0 mm - 8 W/m² -
1787708607 36.11° C 13% 1186.2 hPa 0 mm - 11 W/m² -
1787708302 36.11° C 12% 1186.1 hPa 0 mm - 13 W/m² -
1787707997 36.11° C 12% 1186.1 hPa 0 mm - 15 W/m² -
1787707694 36.11° C 12% 1186.2 hPa 0 mm - 19 W/m² -
1787707388 36.67° C 12% 1185.8 hPa 0 mm - 23 W/m² -
1787707084 36.11° C 12% 1186.1 hPa 0 mm - 28 W/m² -
1787706783 36.67° C 12% 1186 hPa 0 mm - 29 W/m² -
1787706479 36.67° C 12% 1186 hPa 0 mm - 38 W/m² -
1787706174 36.67° C 12% 1185.8 hPa 0 mm - 61 W/m² -
1787705869 36.67° C 12% 1186 hPa 0 mm - 62 W/m² -
1787705564 36.67° C 12% 1186.1 hPa 0 mm - 45 W/m² -

* Rain latest hour (hover to see other rain measurements)
** Current wind speed in m/s (hover to see current wind gust speed)